Location: C.E.K. Mees Observatory
(42.7003°N, 77.4088°W)
Time: 12:24:26
(UTC-05:00)

Envisat - Visible Passes

Search period start: 02 December 2020 00:00
Search period end: 12 December 2020 00:00
Orbit: 764 x 766 km, 98.1° (Epoch: 01 December)

Date Brightness Start Highest point End Pass type
(mag) Time Alt. Az. Time Alt. Az. Time Alt. Az.
02 Dec 6.0 04:46:59 10° NE 04:49:46 15° E 04:52:30 10° ESE visible
02 Dec 3.0 06:24:12 10° N 06:29:16 68° WNW 06:34:17 10° SSW visible
02 Dec 4.1 17:39:34 10° S 17:44:27 48° W 17:49:23 10° NNW visible
03 Dec 3.8 05:47:27 10° NNE 05:52:27 55° E 05:57:24 10° S visible
03 Dec 3.0 17:02:33 10° SSE 17:07:36 78° ENE 17:12:42 10° N visible
03 Dec 6.2 18:45:04 10° WSW 18:47:12 13° W 18:49:21 10° WNW visible
04 Dec 5.3 05:11:15 10° NE 05:15:26 25° E 05:19:36 10° SSE visible
04 Dec 3.4 06:49:51 10° N 06:54:34 39° WNW 06:59:15 10° SW visible
04 Dec 5.2 18:05:42 10° SSW 18:10:00 28° W 18:14:21 10° NW visible
05 Dec 6.2 04:36:45 10° ENE 04:38:13 11° E 04:39:41 10° ESE visible
05 Dec 3.0 06:12:47 10° NNE 06:17:53 85° WNW 06:22:58 10° SSW visible
05 Dec 3.6 17:28:01 10° S 17:33:02 61° W 17:38:05 10° NNW visible
06 Dec 4.2 05:36:10 10° NNE 05:41:01 43° E 05:45:50 10° S visible
06 Dec 6.0 18:32:35 10° SW 18:35:40 16° W 18:38:47 10° NW visible
07 Dec 5.6 05:00:14 10° NE 05:03:56 20° E 05:07:38 10° SE visible
07 Dec 3.2 06:38:20 10° N 06:43:14 50° WNW 06:48:06 10° SW visible
07 Dec 4.8 17:53:56 10° SSW 17:58:33 35° W 18:03:11 10° NNW visible
08 Dec 3.2 06:01:24 10° NNE 06:06:30 76° ESE 06:11:34 10° S visible
08 Dec 3.2 17:16:33 10° S 17:21:37 78° WSW 17:26:43 10° NNW visible
09 Dec 4.7 05:24:57 10° NNE 05:29:34 34° E 05:34:10 10° SSE visible
09 Dec 5.7 18:20:26 10° SW 18:24:10 20° W 18:27:55 10° NW visible
10 Dec 5.9 04:49:23 10° NE 04:52:26 16° E 04:55:29 10° SE visible
10 Dec 3.0 06:26:51 10° N 06:31:53 63° WNW 06:36:53 10° SSW visible
10 Dec 4.3 17:42:16 10° S 17:47:06 44° W 17:51:58 10° NNW visible
11 Dec 3.6 05:50:03 10° NNE 05:55:05 60° E 06:00:06 10° S visible
11 Dec 3.0 17:05:09 10° SSE 17:10:14 84° ENE 17:15:20 10° NNW visible
11 Dec 6.3 18:48:17 10° WSW 18:49:53 11° W 18:51:30 10° WNW visible
